Tracking 33446 objects as of 10-Mar-2026
HD Live streaming from Space Station
objects crossing your sky now

STARLINK-35551

Track STARLINK-35551 now!
10-day predictions
STARLINK-35551 is classified as:


NORAD ID: 66200
Int'l Code: 2025-243Z
Perigee: 481.8 km
Apogee: 483.2 km
Inclination: 53.2 °
Period: 94.1 minutes
Semi major axis: 6853 km
RCS: Unknown
Launch date: October 26, 2025
Source: United States (US)
Launch site: AIR FORCE EASTERN TEST RANGE (AFETR)
Your satellite tracking list
Your tracking list is empty




NASA's NSSDC Master Catalog

Two Line Element Set (TLE):
1 66200U 25243Z   26068.74495669  .00024166  00000-0  82625-3 0  9997
2 66200  53.1601 244.8910 0001017  74.5562 285.5552 15.30165645 20660
Source of the keplerian elements: AFSPC